LOCATION_NAME,SAMPLE COLLECTION TIME,DOSE EQUIVALENT RATE (nSv/h),GAMMA COUNT RATE R02 (CPM),GAMMA COUNT RATE R03 (CPM),GAMMA COUNT RATE R04 (CPM),GAMMA COUNT RATE R05 (CPM),GAMMA COUNT RATE R06 (CPM),GAMMA COUNT RATE R07 (CPM),GAMMA COUNT RATE R08 (CPM),GAMMA COUNT RATE R09 (CPM),STATUS
NJ: EDISON,01/01/2011 00:41:00,,1796.00,1030.00,270.00,126.00,86.00,104.00,57.00,27.00,APPROVED
NJ: EDISON,01/01/2011 01:41:00,,1804.00,1031.00,276.00,127.00,83.00,104.00,55.00,27.00,APPROVED
NJ: EDISON,01/01/2011 02:41:00,,1809.00,1029.00,276.00,128.00,84.00,105.00,54.00,27.00,APPROVED
NJ: EDISON,01/01/2011 03:41:00,,1804.00,1034.00,283.00,130.00,86.00,108.00,54.00,28.00,APPROVED
NJ: EDISON,01/01/2011 04:42:00,,1833.00,1041.00,278.00,127.00,85.00,107.00,54.00,28.00,APPROVED
NJ: EDISON,01/01/2011 05:42:00,,1834.00,1047.00,284.00,128.00,86.00,112.00,53.00,28.00,APPROVED
NJ: EDISON,01/01/2011 06:42:00,,1852.00,1057.00,282.00,131.00,85.00,109.00,52.00,26.00,APPROVED
NJ: EDISON,01/01/2011 07:42:00,,1844.00,1055.00,288.00,133.00,86.00,113.00,53.00,27.00,APPROVED
NJ: EDISON,01/01/2011 08:43:00,,1854.00,1061.00,287.00,133.00,85.00,111.00,52.00,27.00,APPROVED
NJ: EDISON,01/01/2011 09:43:00,,1868.00,1070.00,290.00,133.00,86.00,114.00,55.00,28.00,APPROVED
NJ: EDISON,01/01/2011 10:43:00,,1881.00,1072.00,291.00,133.00,86.00,113.00,53.00,27.00,APPROVED
NJ: EDISON,01/01/2011 11:43:00,,1889.00,1084.00,292.00,135.00,89.00,116.00,54.00,27.00,APPROVED
NJ: EDISON,01/01/2011 12:43:00,,1879.00,1086.00,297.00,134.00,89.00,114.00,54.00,27.00,APPROVED
NJ: EDISON,01/01/2011 13:44:00,,1870.00,1083.00,296.00,133.00,89.00,115.00,54.00,27.00,APPROVED
NJ: EDISON,01/01/2011 14:44:00,,1849.00,1070.00,293.00,133.00,89.00,112.00,56.00,28.00,APPROVED
NJ: EDISON,01/01/2011 15:44:00,,1772.00,1050.00,290.00,140.00,88.00,110.00,60.00,29.00,APPROVED
NJ: EDISON,01/01/2011 16:44:00,,1724.00,1022.00,283.00,138.00,87.00,109.00,64.00,28.00,APPROVED
NJ: EDISON,01/01/2011 17:44:00,,1638.00,990.00,279.00,141.00,87.00,109.00,66.00,26.00,APPROVED
NJ: EDISON,01/01/2011 18:45:00,,1610.00,966.00,270.00,137.00,87.00,103.00,64.00,28.00,APPROVED
NJ: EDISON,01/01/2011 19:45:00,,1633.00,979.00,269.00,138.00,89.00,104.00,65.00,29.00,APPROVED
NJ: EDISON,01/01/2011 20:45:00,,1662.00,987.00,272.00,137.00,87.00,102.00,66.00,28.00,APPROVED
NJ: EDISON,01/01/2011 21:45:00,,1686.00,1008.00,270.00,137.00,87.00,102.00,64.00,27.00,APPROVED
NJ: EDISON,01/01/2011 22:45:00,,1688.00,1001.00,274.00,135.00,87.00,102.00,61.00,27.00,APPROVED
NJ: EDISON,01/01/2011 23:46:00,,1665.00,986.00,270.00,132.00,84.00,101.00,61.00,27.00,APPROVED
NJ: EDISON,01/02/2011 00:46:00,,1645.00,959.00,259.00,128.00,81.00,97.00,61.00,27.00,APPROVED
NJ: EDISON,01/02/2011 01:46:00,,1652.00,947.00,257.00,128.00,83.00,96.00,60.00,26.00,APPROVED
NJ: EDISON,01/02/2011 02:46:00,,1651.00,959.00,261.00,128.00,83.00,95.00,61.00,26.00,APPROVED
NJ: EDISON,01/02/2011 03:46:00,,1667.00,959.00,261.00,130.00,86.00,100.00,61.00,27.00,APPROVED
NJ: EDISON,01/02/2011 04:47:00,,1668.00,984.00,265.00,128.00,84.00,98.00,63.00,27.00,APPROVED
NJ: EDISON,01/02/2011 05:47:00,,1686.00,979.00,264.00,131.00,83.00,97.00,63.00,27.00,APPROVED
NJ: EDISON,01/02/2011 06:47:00,,1690.00,987.00,270.00,132.00,84.00,99.00,61.00,26.00,APPROVED
NJ: EDISON,01/02/2011 07:47:00,,1709.00,1012.00,276.00,135.00,87.00,103.00,62.00,28.00,APPROVED
NJ: EDISON,01/02/2011 08:47:00,,1739.00,1033.00,283.00,137.00,86.00,107.00,65.00,28.00,APPROVED
NJ: EDISON,01/02/2011 09:48:00,,1748.00,1058.00,289.00,146.00,90.00,111.00,67.00,28.00,APPROVED
NJ: EDISON,01/02/2011 10:48:00,,1854.00,1179.00,327.00,165.00,98.00,129.00,72.00,31.00,APPROVED
NJ: EDISON,01/02/2011 11:48:00,,1855.00,1188.00,326.00,168.00,100.00,129.00,74.00,30.00,APPROVED
NJ: EDISON,01/02/2011 12:48:00,,1863.00,1162.00,321.00,159.00,97.00,123.00,71.00,30.00,APPROVED
NJ: EDISON,01/02/2011 13:49:00,,1864.00,1147.00,315.00,164.00,96.00,122.00,70.00,29.00,APPROVED
NJ: EDISON,01/02/2011 14:49:00,,1871.00,1149.00,313.00,162.00,97.00,120.00,69.00,30.00,APPROVED
NJ: EDISON,01/02/2011 15:49:00,,1848.00,1137.00,304.00,162.00,97.00,120.00,71.00,28.00,APPROVED
NJ: EDISON,01/02/2011 16:49:00,,1860.00,1131.00,302.00,160.00,97.00,118.00,72.00,30.00,APPROVED
NJ: EDISON,01/02/2011 17:49:00,,1844.00,1122.00,302.00,153.00,97.00,116.00,70.00,29.00,APPROVED
NJ: EDISON,01/02/2011 18:50:00,,1803.00,1079.00,291.00,147.00,90.00,110.00,66.00,28.00,APPROVED
NJ: EDISON,01/02/2011 19:50:00,,1788.00,1055.00,287.00,141.00,90.00,108.00,65.00,28.00,APPROVED
NJ: EDISON,01/02/2011 20:50:00,,1795.00,1067.00,285.00,140.00,90.00,107.00,64.00,28.00,APPROVED
NJ: EDISON,01/02/2011 21:50:00,,1830.00,1082.00,286.00,142.00,91.00,108.00,64.00,28.00,APPROVED
NJ: EDISON,01/02/2011 22:50:00,,1854.00,1091.00,286.00,139.00,89.00,108.00,65.00,28.00,APPROVED
NJ: EDISON,01/02/2011 23:51:00,,1849.00,1082.00,285.00,137.00,87.00,108.00,64.00,28.00,APPROVED
NJ: EDISON,01/03/2011 00:51:00,,1840.00,1069.00,282.00,135.00,91.00,105.00,58.00,27.00,APPROVED
NJ: EDISON,01/03/2011 01:51:00,,1842.00,1060.00,281.00,132.00,87.00,102.00,60.00,27.00,APPROVED
NJ: EDISON,01/03/2011 02:51:00,,1856.00,1051.00,282.00,132.00,84.00,103.00,58.00,26.00,APPROVED
NJ: EDISON,01/03/2011 03:51:00,,1873.00,1057.00,281.00,128.00,87.00,104.00,56.00,26.00,APPROVED
NJ: EDISON,01/03/2011 04:52:00,,1876.00,1061.00,283.00,129.00,86.00,106.00,53.00,27.00,APPROVED
NJ: EDISON,01/03/2011 05:52:00,,1875.00,1063.00,283.00,129.00,86.00,109.00,53.00,28.00,APPROVED
NJ: EDISON,01/03/2011 06:52:00,,1881.00,1060.00,278.00,129.00,87.00,108.00,52.00,28.00,APPROVED
NJ: EDISON,01/03/2011 07:52:00,,1879.00,1047.00,277.00,127.00,84.00,111.00,48.00,28.00,APPROVED
NJ: EDISON,01/03/2011 08:52:00,,1862.00,1043.00,282.00,123.00,84.00,108.00,47.00,27.00,APPROVED
NJ: EDISON,01/03/2011 09:53:00,,1870.00,1032.00,278.00,123.00,87.00,108.00,44.00,28.00,APPROVED
NJ: EDISON,01/03/2011 10:53:00,,1876.00,1032.00,275.00,124.00,84.00,112.00,46.00,27.00,APPROVED
NJ: EDISON,01/03/2011 11:53:00,,1874.00,1024.00,274.00,123.00,83.00,109.00,43.00,27.00,APPROVED
NJ: EDISON,01/03/2011 12:53:00,,1849.00,1006.00,276.00,121.00,85.00,107.00,45.00,27.00,APPROVED
NJ: EDISON,01/03/2011 13:54:00,,1824.00,1000.00,270.00,122.00,81.00,106.00,44.00,27.00,APPROVED
NJ: EDISON,01/03/2011 14:54:00,,1826.00,998.00,269.00,120.00,82.00,105.00,43.00,27.00,APPROVED
NJ: EDISON,01/03/2011 15:54:00,,1805.00,1003.00,267.00,122.00,83.00,102.00,46.00,26.00,APPROVED
NJ: EDISON,01/03/2011 16:54:00,,1834.00,1024.00,266.00,122.00,85.00,107.00,48.00,27.00,APPROVED
NJ: EDISON,01/03/2011 17:54:00,,1834.00,1016.00,273.00,125.00,85.00,106.00,50.00,28.00,APPROVED
NJ: EDISON,01/03/2011 18:55:00,,1832.00,1027.00,274.00,123.00,83.00,104.00,51.00,28.00,APPROVED
NJ: EDISON,01/03/2011 19:55:00,,1818.00,1014.00,273.00,125.00,85.00,105.00,52.00,27.00,APPROVED
NJ: EDISON,01/03/2011 20:55:00,,1829.00,1024.00,273.00,126.00,85.00,105.00,52.00,27.00,APPROVED
NJ: EDISON,01/03/2011 21:55:00,,1838.00,1025.00,278.00,124.00,84.00,103.00,52.00,27.00,APPROVED
NJ: EDISON,01/03/2011 22:55:00,,1864.00,1040.00,280.00,125.00,86.00,107.00,49.00,26.00,APPROVED
NJ: EDISON,01/03/2011 23:56:00,,1890.00,1044.00,282.00,127.00,86.00,110.00,49.00,28.00,APPROVED
NJ: EDISON,01/04/2011 00:56:00,,1893.00,1057.00,284.00,125.00,83.00,111.00,49.00,28.00,APPROVED
NJ: EDISON,01/04/2011 01:56:00,,1897.00,1061.00,285.00,128.00,85.00,110.00,50.00,26.00,APPROVED
NJ: EDISON,01/04/2011 02:56:00,,1902.00,1048.00,283.00,128.00,86.00,113.00,47.00,27.00,APPROVED
NJ: EDISON,01/04/2011 03:56:00,,1922.00,1053.00,287.00,126.00,88.00,112.00,45.00,28.00,APPROVED
NJ: EDISON,01/04/2011 04:57:00,,1914.00,1053.00,280.00,128.00,87.00,112.00,45.00,27.00,APPROVED
NJ: EDISON,01/04/2011 05:57:00,,1925.00,1068.00,285.00,126.00,88.00,114.00,45.00,28.00,APPROVED
NJ: EDISON,01/04/2011 06:57:00,,1941.00,1074.00,289.00,127.00,88.00,112.00,47.00,28.00,APPROVED
NJ: EDISON,01/04/2011 07:57:00,,1945.00,1073.00,294.00,128.00,87.00,117.00,48.00,27.00,APPROVED
NJ: EDISON,01/04/2011 08:57:00,,1954.00,1092.00,290.00,129.00,91.00,116.00,48.00,27.00,APPROVED
NJ: EDISON,01/04/2011 09:58:00,,1963.00,1091.00,295.00,130.00,86.00,113.00,49.00,26.00,APPROVED
NJ: EDISON,01/04/2011 10:58:00,,1952.00,1089.00,290.00,127.00,88.00,112.00,46.00,28.00,APPROVED
NJ: EDISON,01/04/2011 11:58:00,,1948.00,1068.00,286.00,127.00,87.00,115.00,46.00,28.00,APPROVED
NJ: EDISON,01/04/2011 12:58:00,,1934.00,1077.00,288.00,132.00,87.00,114.00,45.00,28.00,APPROVED
NJ: EDISON,01/04/2011 13:59:00,,1925.00,1072.00,293.00,130.00,88.00,114.00,46.00,28.00,APPROVED
NJ: EDISON,01/04/2011 14:59:00,,1904.00,1060.00,291.00,126.00,86.00,113.00,47.00,27.00,APPROVED
NJ: EDISON,01/04/2011 15:59:00,,1904.00,1061.00,285.00,128.00,87.00,112.00,48.00,27.00,APPROVED
NJ: EDISON,01/04/2011 16:24:00,,1893.00,1039.00,279.00,126.00,86.00,110.00,47.00,27.00,APPROVED
NJ: EDISON,01/04/2011 17:40:00,,1852.00,1026.00,274.00,122.00,85.00,105.00,52.00,28.00,APPROVED
NJ: EDISON,01/04/2011 18:40:00,,1810.00,1023.00,274.00,130.00,85.00,103.00,54.00,27.00,APPROVED
NJ: EDISON,01/04/2011 19:40:00,,1798.00,1023.00,271.00,125.00,85.00,102.00,56.00,27.00,APPROVED
NJ: EDISON,01/04/2011 20:41:00,,1810.00,1029.00,275.00,128.00,86.00,100.00,55.00,27.00,APPROVED
NJ: EDISON,01/04/2011 21:41:00,,1839.00,1043.00,275.00,128.00,86.00,105.00,57.00,28.00,APPROVED
NJ: EDISON,01/04/2011 22:41:00,,1867.00,1046.00,282.00,126.00,87.00,106.00,56.00,28.00,APPROVED
NJ: EDISON,01/04/2011 23:41:00,,1891.00,1057.00,283.00,129.00,88.00,107.00,52.00,27.00,APPROVED
NJ: EDISON,01/05/2011 00:42:00,,1896.00,1062.00,280.00,128.00,86.00,112.00,54.00,27.00,APPROVED
NJ: EDISON,01/05/2011 01:42:00,,1910.00,1069.00,283.00,132.00,88.00,110.00,50.00,27.00,APPROVED
NJ: EDISON,01/05/2011 02:42:00,,1920.00,1066.00,284.00,127.00,86.00,109.00,50.00,28.00,APPROVED
NJ: EDISON,01/05/2011 03:42:00,,1936.00,1083.00,290.00,131.00,87.00,110.00,52.00,27.00,APPROVED
NJ: EDISON,01/05/2011 04:42:00,,1958.00,1096.00,293.00,135.00,89.00,115.00,52.00,27.00,APPROVED
NJ: EDISON,01/05/2011 05:43:00,,1969.00,1100.00,301.00,133.00,89.00,114.00,54.00,29.00,APPROVED
NJ: EDISON,01/05/2011 06:43:00,,1992.00,1113.00,301.00,134.00,90.00,117.00,52.00,29.00,APPROVED
NJ: EDISON,01/05/2011 07:43:00,,1977.00,1118.00,300.00,135.00,90.00,119.00,51.00,29.00,APPROVED
NJ: EDISON,01/05/2011 08:43:00,,2004.00,1135.00,305.00,136.00,92.00,117.00,52.00,28.00,APPROVED
NJ: EDISON,01/05/2011 09:43:00,,1978.00,1125.00,304.00,137.00,91.00,120.00,51.00,30.00,APPROVED
NJ: EDISON,01/05/2011 10:44:00,,1963.00,1111.00,298.00,136.00,92.00,116.00,52.00,28.00,APPROVED
NJ: EDISON,01/05/2011 11:44:00,,1968.00,1106.00,298.00,136.00,90.00,119.00,51.00,28.00,APPROVED
NJ: EDISON,01/05/2011 12:44:00,,1963.00,1110.00,300.00,134.00,92.00,120.00,50.00,27.00,APPROVED
NJ: EDISON,01/05/2011 13:44:00,,1960.00,1106.00,304.00,134.00,91.00,119.00,51.00,29.00,APPROVED
NJ: EDISON,01/05/2011 14:44:00,,1967.00,1128.00,303.00,139.00,92.00,120.00,53.00,28.00,APPROVED
NJ: EDISON,01/05/2011 15:45:00,,1970.00,1143.00,305.00,141.00,91.00,120.00,56.00,27.00,APPROVED
NJ: EDISON,01/05/2011 16:45:00,,1952.00,1134.00,303.00,139.00,94.00,116.00,56.00,29.00,APPROVED
NJ: EDISON,01/05/2011 17:45:00,,1945.00,1133.00,303.00,142.00,93.00,113.00,59.00,29.00,APPROVED
NJ: EDISON,01/05/2011 18:45:00,,1915.00,1121.00,305.00,142.00,94.00,118.00,61.00,28.00,APPROVED
NJ: EDISON,01/05/2011 19:46:00,,1904.00,1115.00,303.00,141.00,90.00,114.00,61.00,30.00,APPROVED
NJ: EDISON,01/05/2011 20:46:00,,1918.00,1122.00,303.00,136.00,91.00,115.00,60.00,29.00,APPROVED
NJ: EDISON,01/05/2011 21:46:00,,1941.00,1123.00,300.00,142.00,93.00,117.00,57.00,28.00,APPROVED
NJ: EDISON,01/05/2011 22:46:00,,1951.00,1122.00,302.00,140.00,89.00,116.00,55.00,27.00,APPROVED
NJ: EDISON,01/05/2011 23:46:00,,1967.00,1131.00,305.00,140.00,92.00,118.00,55.00,28.00,APPROVED
NJ: EDISON,01/06/2011 00:47:00,,1975.00,1123.00,303.00,138.00,92.00,120.00,54.00,29.00,APPROVED
NJ: EDISON,01/06/2011 01:47:00,,1967.00,1117.00,302.00,136.00,93.00,120.00,52.00,28.00,APPROVED
NJ: EDISON,01/06/2011 02:47:00,,1956.00,1109.00,304.00,133.00,92.00,119.00,51.00,28.00,APPROVED
NJ: EDISON,01/06/2011 03:47:00,,1959.00,1114.00,302.00,138.00,91.00,118.00,51.00,27.00,APPROVED
NJ: EDISON,01/06/2011 04:47:00,,1967.00,1120.00,308.00,139.00,92.00,122.00,50.00,28.00,APPROVED
NJ: EDISON,01/06/2011 05:48:00,,1971.00,1113.00,305.00,133.00,91.00,122.00,51.00,28.00,APPROVED
NJ: EDISON,01/06/2011 06:48:00,,1951.00,1114.00,308.00,134.00,89.00,122.00,48.00,28.00,APPROVED
NJ: EDISON,01/06/2011 07:48:00,,1960.00,1107.00,309.00,132.00,93.00,123.00,48.00,29.00,APPROVED
NJ: EDISON,01/06/2011 08:48:00,,1966.00,1118.00,307.00,134.00,92.00,126.00,46.00,29.00,APPROVED
NJ: EDISON,01/06/2011 09:48:00,,1960.00,1120.00,305.00,137.00,93.00,124.00,47.00,29.00,APPROVED
NJ: EDISON,01/06/2011 10:49:00,,1953.00,1123.00,310.00,139.00,94.00,123.00,48.00,29.00,APPROVED
NJ: EDISON,01/06/2011 11:49:00,,1960.00,1102.00,307.00,135.00,90.00,123.00,46.00,28.00,APPROVED
NJ: EDISON,01/06/2011 12:49:00,,1957.00,1099.00,299.00,134.00,91.00,120.00,47.00,28.00,APPROVED
NJ: EDISON,01/06/2011 13:49:00,,1926.00,1076.00,296.00,131.00,88.00,117.00,45.00,27.00,APPROVED
NJ: EDISON,01/06/2011 14:49:00,,1879.00,1037.00,285.00,126.00,83.00,112.00,43.00,28.00,APPROVED
NJ: EDISON,01/06/2011 15:50:00,,1842.00,1026.00,274.00,124.00,86.00,109.00,47.00,27.00,APPROVED
NJ: EDISON,01/06/2011 16:50:00,,1800.00,1007.00,270.00,121.00,84.00,104.00,50.00,27.00,APPROVED
NJ: EDISON,01/06/2011 17:50:00,,1833.00,1028.00,276.00,128.00,86.00,105.00,52.00,27.00,APPROVED
NJ: EDISON,01/06/2011 18:50:00,,1842.00,1031.00,277.00,126.00,85.00,107.00,50.00,28.00,APPROVED
NJ: EDISON,01/06/2011 19:50:00,,1843.00,1030.00,283.00,126.00,85.00,104.00,51.00,27.00,APPROVED
NJ: EDISON,01/06/2011 20:51:00,,1822.00,1037.00,274.00,128.00,85.00,108.00,54.00,27.00,APPROVED
NJ: EDISON,01/06/2011 21:51:00,,1845.00,1042.00,278.00,128.00,86.00,109.00,49.00,27.00,APPROVED
NJ: EDISON,01/06/2011 22:51:00,,1881.00,1052.00,285.00,128.00,87.00,110.00,49.00,28.00,APPROVED
NJ: EDISON,01/06/2011 23:51:00,,1910.00,1053.00,282.00,128.00,88.00,112.00,48.00,27.00,APPROVED
NJ: EDISON,01/07/2011 00:52:00,,1921.00,1066.00,286.00,128.00,88.00,114.00,47.00,28.00,APPROVED
NJ: EDISON,01/07/2011 01:52:00,,1924.00,1061.00,286.00,126.00,86.00,117.00,46.00,27.00,APPROVED
NJ: EDISON,01/07/2011 02:52:00,,1932.00,1060.00,287.00,124.00,85.00,114.00,45.00,29.00,APPROVED
NJ: EDISON,01/07/2011 03:52:00,,1923.00,1062.00,288.00,128.00,87.00,115.00,46.00,28.00,APPROVED
NJ: EDISON,01/07/2011 04:52:00,,1919.00,1050.00,289.00,124.00,87.00,113.00,45.00,28.00,APPROVED
NJ: EDISON,01/07/2011 05:53:00,,1909.00,1055.00,282.00,123.00,86.00,111.00,45.00,27.00,APPROVED
NJ: EDISON,01/07/2011 06:53:00,,1895.00,1054.00,283.00,126.00,85.00,114.00,45.00,28.00,APPROVED
NJ: EDISON,01/07/2011 07:53:00,,1910.00,1062.00,284.00,128.00,87.00,113.00,47.00,27.00,APPROVED
NJ: EDISON,01/07/2011 08:53:00,,1904.00,1065.00,290.00,127.00,87.00,115.00,46.00,29.00,APPROVED
NJ: EDISON,01/07/2011 09:53:00,,1923.00,1075.00,289.00,129.00,89.00,115.00,48.00,28.00,APPROVED
NJ: EDISON,01/07/2011 10:54:00,,1952.00,1091.00,295.00,131.00,91.00,117.00,48.00,28.00,APPROVED
NJ: EDISON,01/07/2011 11:54:00,,1964.00,1114.00,304.00,135.00,91.00,122.00,50.00,28.00,APPROVED
NJ: EDISON,01/07/2011 12:54:00,,1975.00,1118.00,304.00,137.00,92.00,122.00,50.00,29.00,APPROVED
NJ: EDISON,01/07/2011 13:32:00,,1962.00,1108.00,306.00,136.00,93.00,118.00,50.00,28.00,APPROVED
NJ: EDISON,01/07/2011 14:48:00,,1959.00,1101.00,296.00,132.00,88.00,116.00,50.00,29.00,APPROVED
NJ: EDISON,01/07/2011 15:48:00,,1976.00,1130.00,304.00,137.00,92.00,120.00,50.00,28.00,APPROVED
NJ: EDISON,01/07/2011 16:49:00,,1907.00,1080.00,293.00,129.00,89.00,118.00,52.00,28.00,APPROVED
NJ: EDISON,01/07/2011 17:49:00,,1997.00,1153.00,319.00,142.00,95.00,124.00,54.00,29.00,APPROVED
NJ: EDISON,01/07/2011 18:49:00,,1962.00,1119.00,312.00,138.00,92.00,121.00,53.00,28.00,APPROVED
NJ: EDISON,01/07/2011 19:49:00,,1953.00,1112.00,301.00,136.00,89.00,118.00,54.00,28.00,APPROVED
NJ: EDISON,01/07/2011 20:50:00,,1942.00,1106.00,305.00,137.00,90.00,120.00,53.00,28.00,APPROVED
NJ: EDISON,01/07/2011 21:50:00,,1958.00,1105.00,303.00,138.00,87.00,119.00,52.00,29.00,APPROVED
NJ: EDISON,01/07/2011 22:50:00,,1968.00,1121.00,303.00,134.00,92.00,122.00,52.00,30.00,APPROVED
NJ: EDISON,01/07/2011 23:50:00,,1957.00,1105.00,304.00,135.00,91.00,120.00,50.00,29.00,APPROVED
NJ: EDISON,01/08/2011 00:50:00,,1951.00,1097.00,302.00,135.00,91.00,122.00,47.00,29.00,APPROVED
NJ: EDISON,01/08/2011 01:51:00,,1948.00,1096.00,300.00,132.00,88.00,120.00,47.00,28.00,APPROVED
NJ: EDISON,01/08/2011 02:51:00,,1949.00,1093.00,296.00,133.00,89.00,121.00,46.00,28.00,APPROVED
NJ: EDISON,01/08/2011 03:51:00,,1963.00,1081.00,295.00,132.00,87.00,120.00,47.00,27.00,APPROVED
NJ: EDISON,01/08/2011 04:51:00,,1961.00,1088.00,300.00,132.00,90.00,118.00,46.00,28.00,APPROVED
NJ: EDISON,01/08/2011 05:51:00,,1956.00,1100.00,298.00,134.00,90.00,118.00,48.00,28.00,APPROVED
NJ: EDISON,01/08/2011 06:52:00,,1939.00,1098.00,296.00,133.00,87.00,118.00,48.00,29.00,APPROVED
NJ: EDISON,01/08/2011 07:52:00,,1952.00,1106.00,305.00,132.00,91.00,119.00,50.00,28.00,APPROVED
NJ: EDISON,01/08/2011 08:52:00,,1971.00,1119.00,304.00,138.00,89.00,121.00,50.00,28.00,APPROVED
NJ: EDISON,01/08/2011 09:52:00,,1966.00,1125.00,307.00,137.00,92.00,122.00,51.00,29.00,APPROVED
NJ: EDISON,01/08/2011 10:52:00,,1968.00,1133.00,307.00,138.00,94.00,121.00,50.00,29.00,APPROVED
NJ: EDISON,01/08/2011 11:53:00,,1971.00,1133.00,304.00,134.00,92.00,123.00,48.00,29.00,APPROVED
NJ: EDISON,01/08/2011 12:53:00,,1976.00,1121.00,311.00,133.00,91.00,122.00,48.00,28.00,APPROVED
NJ: EDISON,01/08/2011 13:53:00,,1963.00,1114.00,303.00,135.00,90.00,125.00,48.00,27.00,APPROVED
NJ: EDISON,01/08/2011 14:53:00,,1956.00,1090.00,301.00,133.00,91.00,117.00,47.00,27.00,APPROVED
NJ: EDISON,01/08/2011 15:53:00,,1973.00,1092.00,299.00,130.00,88.00,121.00,47.00,29.00,APPROVED
NJ: EDISON,01/08/2011 16:54:00,,1981.00,1120.00,303.00,136.00,90.00,122.00,49.00,29.00,APPROVED
NJ: EDISON,01/08/2011 17:54:00,,1978.00,1119.00,303.00,135.00,93.00,122.00,50.00,28.00,APPROVED
NJ: EDISON,01/08/2011 18:54:00,,2059.00,1182.00,328.00,144.00,96.00,130.00,52.00,29.00,APPROVED
NJ: EDISON,01/08/2011 19:54:00,,2064.00,1188.00,329.00,144.00,96.00,131.00,52.00,28.00,APPROVED
NJ: EDISON,01/08/2011 20:55:00,,2046.00,1171.00,326.00,141.00,93.00,129.00,50.00,28.00,APPROVED
NJ: EDISON,01/08/2011 21:55:00,,2014.00,1139.00,311.00,136.00,93.00,124.00,51.00,28.00,APPROVED
NJ: EDISON,01/08/2011 22:55:00,,1997.00,1135.00,313.00,137.00,91.00,125.00,51.00,29.00,APPROVED
NJ: EDISON,01/08/2011 23:55:00,,1981.00,1134.00,309.00,135.00,92.00,122.00,51.00,28.00,APPROVED
NJ: EDISON,01/09/2011 00:55:00,,2006.00,1128.00,306.00,134.00,91.00,121.00,48.00,28.00,APPROVED
NJ: EDISON,01/09/2011 01:56:00,,2042.00,1167.00,317.00,138.00,94.00,124.00,49.00,28.00,APPROVED
NJ: EDISON,01/09/2011 02:56:00,,2032.00,1163.00,320.00,140.00,94.00,126.00,49.00,30.00,APPROVED
NJ: EDISON,01/09/2011 03:56:00,,2019.00,1152.00,316.00,142.00,95.00,128.00,48.00,28.00,APPROVED
NJ: EDISON,01/09/2011 04:56:00,,2002.00,1132.00,317.00,138.00,91.00,126.00,48.00,29.00,APPROVED
NJ: EDISON,01/09/2011 05:56:00,,1996.00,1135.00,313.00,136.00,92.00,122.00,48.00,28.00,APPROVED
NJ: EDISON,01/09/2011 06:57:00,,1916.00,1076.00,295.00,132.00,87.00,117.00,45.00,28.00,APPROVED
NJ: EDISON,01/09/2011 07:57:00,,1867.00,1016.00,277.00,122.00,85.00,111.00,42.00,28.00,APPROVED
NJ: EDISON,01/09/2011 08:57:00,,1842.00,1005.00,272.00,122.00,82.00,107.00,42.00,26.00,APPROVED
NJ: EDISON,01/09/2011 09:57:00,,1850.00,1008.00,268.00,122.00,83.00,111.00,44.00,27.00,APPROVED
NJ: EDISON,01/09/2011 10:57:00,,1860.00,1009.00,272.00,117.00,81.00,105.00,43.00,27.00,APPROVED
NJ: EDISON,01/09/2011 11:58:00,,1840.00,1000.00,268.00,121.00,81.00,108.00,42.00,27.00,APPROVED
NJ: EDISON,01/09/2011 12:58:00,,1840.00,1003.00,266.00,120.00,81.00,107.00,42.00,25.00,APPROVED
NJ: EDISON,01/09/2011 13:58:00,,1840.00,997.00,267.00,119.00,83.00,106.00,41.00,26.00,APPROVED
NJ: EDISON,01/09/2011 14:58:00,,1854.00,1003.00,267.00,121.00,82.00,107.00,42.00,28.00,APPROVED
NJ: EDISON,01/09/2011 15:58:00,,1843.00,1006.00,267.00,119.00,82.00,107.00,43.00,27.00,APPROVED
NJ: EDISON,01/09/2011 16:59:00,,1827.00,1003.00,269.00,123.00,83.00,106.00,44.00,27.00,APPROVED
NJ: EDISON,01/09/2011 17:59:00,,1839.00,999.00,265.00,119.00,82.00,104.00,46.00,27.00,APPROVED
NJ: EDISON,01/09/2011 18:59:00,,1830.00,1007.00,262.00,119.00,82.00,105.00,48.00,27.00,APPROVED
NJ: EDISON,01/09/2011 19:59:00,,1825.00,1006.00,269.00,123.00,81.00,106.00,45.00,26.00,APPROVED
NJ: EDISON,01/09/2011 21:00:00,,1837.00,1001.00,267.00,121.00,84.00,104.00,46.00,28.00,APPROVED
NJ: EDISON,01/09/2011 22:00:00,,1830.00,1001.00,267.00,118.00,83.00,105.00,47.00,26.00,APPROVED
NJ: EDISON,01/09/2011 23:00:00,,1831.00,989.00,266.00,120.00,82.00,103.00,45.00,27.00,APPROVED
NJ: EDISON,01/10/2011 00:00:00,,1817.00,994.00,265.00,119.00,82.00,102.00,42.00,26.00,APPROVED
NJ: EDISON,01/10/2011 01:00:00,,1821.00,997.00,263.00,120.00,82.00,107.00,42.00,25.00,APPROVED
NJ: EDISON,01/10/2011 02:01:00,,1836.00,999.00,268.00,120.00,82.00,105.00,44.00,27.00,APPROVED
NJ: EDISON,01/10/2011 03:01:00,,1838.00,999.00,267.00,122.00,82.00,105.00,42.00,28.00,APPROVED
NJ: EDISON,01/10/2011 04:01:00,,1829.00,1000.00,269.00,119.00,82.00,105.00,42.00,27.00,APPROVED
NJ: EDISON,01/10/2011 05:01:00,,1832.00,994.00,266.00,120.00,81.00,106.00,42.00,27.00,APPROVED
NJ: EDISON,01/10/2011 06:01:00,,1834.00,982.00,267.00,119.00,79.00,105.00,40.00,26.00,APPROVED
NJ: EDISON,01/10/2011 07:02:00,,1835.00,987.00,264.00,116.00,83.00,106.00,40.00,27.00,APPROVED
NJ: EDISON,01/10/2011 08:02:00,,1829.00,986.00,265.00,120.00,82.00,105.00,40.00,26.00,APPROVED
NJ: EDISON,01/10/2011 09:02:00,,1828.00,982.00,264.00,115.00,80.00,107.00,39.00,27.00,APPROVED
NJ: EDISON,01/10/2011 10:02:00,,1839.00,998.00,270.00,119.00,84.00,107.00,42.00,28.00,APPROVED
NJ: EDISON,01/10/2011 11:02:00,,1851.00,1006.00,273.00,117.00,83.00,105.00,42.00,26.00,APPROVED
NJ: EDISON,01/10/2011 12:03:00,,1838.00,1010.00,266.00,122.00,82.00,107.00,41.00,27.00,APPROVED
NJ: EDISON,01/10/2011 13:03:00,,1836.00,1001.00,268.00,119.00,82.00,106.00,43.00,27.00,APPROVED
NJ: EDISON,01/10/2011 14:03:00,,1824.00,989.00,262.00,118.00,81.00,105.00,39.00,26.00,APPROVED
NJ: EDISON,01/10/2011 15:03:00,,1818.00,976.00,263.00,119.00,82.00,105.00,42.00,26.00,APPROVED
NJ: EDISON,01/10/2011 16:03:00,,1798.00,980.00,260.00,117.00,82.00,102.00,43.00,26.00,APPROVED
NJ: EDISON,01/10/2011 17:03:00,,1795.00,976.00,262.00,118.00,83.00,102.00,45.00,26.00,APPROVED
NJ: EDISON,01/10/2011 18:18:00,,1797.00,974.00,258.00,117.00,79.00,101.00,45.00,27.00,APPROVED
NJ: EDISON,01/10/2011 19:19:00,,1781.00,979.00,261.00,117.00,80.00,101.00,47.00,26.00,APPROVED
NJ: EDISON,01/10/2011 20:19:00,,1780.00,969.00,259.00,118.00,80.00,105.00,46.00,25.00,APPROVED
NJ: EDISON,01/10/2011 21:19:00,,1778.00,978.00,257.00,119.00,80.00,102.00,46.00,26.00,APPROVED
NJ: EDISON,01/10/2011 22:19:00,,1794.00,983.00,261.00,117.00,81.00,102.00,47.00,26.00,APPROVED
NJ: EDISON,01/10/2011 23:19:00,,1806.00,984.00,261.00,118.00,83.00,103.00,44.00,26.00,APPROVED
NJ: EDISON,01/11/2011 00:20:00,,1811.00,988.00,264.00,118.00,81.00,105.00,44.00,25.00,APPROVED
NJ: EDISON,01/11/2011 01:20:00,,1827.00,996.00,266.00,117.00,83.00,101.00,45.00,28.00,APPROVED
NJ: EDISON,01/11/2011 02:20:00,,1837.00,992.00,263.00,120.00,80.00,105.00,44.00,26.00,APPROVED
NJ: EDISON,01/11/2011 03:20:00,,1829.00,984.00,263.00,117.00,83.00,105.00,43.00,27.00,APPROVED
NJ: EDISON,01/11/2011 04:21:00,,1828.00,991.00,262.00,116.00,81.00,105.00,41.00,27.00,APPROVED
NJ: EDISON,01/11/2011 05:21:00,,1827.00,987.00,266.00,117.00,81.00,106.00,42.00,26.00,APPROVED
NJ: EDISON,01/11/2011 06:21:00,,1833.00,987.00,266.00,120.00,82.00,105.00,39.00,26.00,APPROVED
NJ: EDISON,01/11/2011 07:21:00,,1838.00,998.00,264.00,117.00,82.00,106.00,40.00,27.00,APPROVED